Location: Invercargill
(46.4000°S, 168.3500°E)
Time: 19:40:39
(UTC+12:00)

PSLV R/B - Pass Details

Date: 14 May 2021
Orbit: 504 x 576 km, 97.8° (Epoch: 14 June)

Event Time Altitude Azimuth Distance (km) Brightness Sun altitude
Exits shadow 18:53:55 - 163° (SSE) 2,002 6.4 -15.3°
Reaches altitude 10° 18:54:24 10° 162° (SSE) 1,795 6.2 -15.4°
Maximum altitude 18:58:15 68° 79° (ENE) 568 3.6 -16.0°
Drops below altitude 10° 19:02:00 10° 354° (N) 1,739 6.6 -16.6°
Sets 19:04:04 0° 351° (N) 2,611 7.5 -17.0°
